Content
SEND FEEDBACK

Daily
Averages
Monthly
Summary
Canada

QUEBEC CITY, QUEBEC


Home > North America > Canada > Quebec
Elevation: 239 feet     Latitude: 46 48N     Longitude: 071 23W

WEATHER
 
SELECT A DAY
Number of Records: 197,972;   Date Range: 6/30/96 - 12/16/14
 
SHARE

PRINT THIS DATA

[ ← Previous Day ]
WEATHER ALMANAC - JANUARY 11, 2013
[ Next Day → ]
[ °C ]   °F
Weather ElementAverageHighLow
Temperature23.1 °F30.2 °F (8:00 pm)9 °F (4:00 am)
Dewpoint16.4 °F24 °F (4:00 pm) (7:00 pm)
Humidity76.4 %88 % (4:00 am)67 % (1:00 pm)
Barometer28.53 in30.55 in (2:00 am) (7:00 pm)
Wind Speed6.8 mph11.5 mph (6:00 pm)
Wind Gust17.3 mph (6:00 pm)
Weather ElementAverage
Visibility16.8 mi
Wind DirectionESE (112.1 °)

Weather ElementTotal
Precipitation---
Heating Degree Days45.4 (Base 65)
Averaged from 33 records on January 11, 2013
WEATHER CONDITIONS BREAKOUT
WIND DIRECTION BREAKOUT
WEATHER BY HOUR - JANUARY 11, 2013
[ °C ]   °F
Local TimeTemperatureDewpointHumidityBarometerVisibilityWind DirectionWind SpeedGust SpeedPrecipitationEventsConditions
1:00 AM22.0 °F16.0 °F69 %30.53 inNW (320°)4.6 mph
1:00 AM21.2 °F12.2 °F68 %30.54 in15.0 miWNW (300°)3.5 mphClear
2:00 AM19.4 °F12.2 °F74 %30.55 in15.0 miNW (320°)3.5 mphClear
3:00 AM19.4 °F12.2 °F74 %30.52 in15.0 miNE (40°)3.5 mphClear
4:00 AM9.0 °F7.0 °F88 %30.53 inNNW (330°)2.3 mph
4:00 AM17.6 °F12.2 °F79 %30.53 in15.0 miNorth (10°)3.5 mphScattered Clouds
5:00 AM15.8 °F10.4 °F79 %30.51 in15.0 miNE (40°)4.6 mphScattered Clouds
6:00 AM17.6 °F10.4 °F73 %30.50 in15.0 miNNE (20°)6.9 mphScattered Clouds
7:00 AM15.8 °F10.4 °F79 %30.51 in15.0 miNNW (340°)4.6 mphScattered Clouds
7:00 AM12.0 °F10.0 °F88 %30.51 inNNW (340°)2.3 mph
8:00 AM15.8 °F10.4 °F79 %30.52 in20.0 miNNE (20°)3.5 mphScattered Clouds
9:00 AM17.6 °F12.2 °F79 %30.51 in20.0 miNE (40°)8.1 mphScattered Clouds
10:00 AM20.0 °F16.0 °F77 %30.48 inENE (70°)6.9 mph
10:00 AM19.4 °F14.0 °F80 %30.48 in20.0 miENE (60°)6.9 mphMostly Cloudy
11:00 AM23.0 °F15.8 °F74 %30.43 in20.0 miENE (60°)10.4 mphMostly Cloudy
12:00 PM24.8 °F17.6 °F74 %30.38 in20.0 miENE (70°)8.1 mphMostly Cloudy
1:00 PM26.6 °F19.4 °F74 %30.35 in20.0 miENE (70°)8.1 mphMostly Cloudy
1:00 PM26.0 °F19.0 °F67 %30.34 inEast (80°)6.9 mph
2:00 PM26.6 °F19.4 °F74 %30.33 in20.0 miENE (70°)8.1 mphMostly Cloudy
3:00 PM26.6 °F21.2 °F80 %30.30 in20.0 miENE (70°)10.4 mphMostly Cloudy
4:00 PM27.0 °F24.0 °F83 %30.27 inEast (80°)8.1 mph
4:00 PM26.6 °F21.2 °F80 %30.27 in20.0 miEast (80°)9.2 mphOvercast
5:00 PM26.6 °F21.2 °F80 %30.24 in15.0 miENE (70°)9.2 mphOvercast
6:00 PM26.6 °F21.2 °F80 %30.20 in15.0 miENE (70°)11.5 mph17.3 mphOvercast
7:00 PM28.4 °F21.2 °F74 %30.19 in15.0 miEast (90°)8.1 mphLight Small Hail Showers
7:00 PM29.0 °F22.0 °F68 %30.19 inEast (80°)9.2 mph
7:52 PM28.4 °F21.2 °F74 %15.0 miEast (80°)6.9 mphRainLight Freezing Rain
8:00 PM30.2 °F21.2 °F69 %30.17 in15.0 miENE (70°)8.1 mphRainLight Freezing Rain
9:00 PM28.4 °F23.0 °F80 %30.16 in15.0 miEast (80°)6.9 mphRainLight Freezing Rain
9:21 PM28.4 °F0.0 °F15.0 miEast (90°)6.9 mphOvercast
10:00 PM29.0 °F24.0 °F74 %30.15 inEast (90°)8.1 mph
10:00 PM28.4 °F21.2 °F74 %30.15 in15.0 miENE (70°)10.4 mph17.3 mphOvercast
11:00 PM28.4 °F23.0 °F80 %30.15 in15.0 miEast (80°)5.8 mphOvercast
Hourly data recorded from CYQB, located miles away from Quebec City, Quebec







STORIES FROM OUR PARTNERS